• In Deutschland
  • Länderverzeichnis
  • Für 7 Tage
  • Wassertemperatur
  • Satellitenkarten
  • Wetterkarte
  • Widgets
  • user-avatar
    Anmelden

    Stündliche Wetter Stropicy

    Heute, 15 August, Mittwoch

    Zeit Temperatur Niederschläge Wind Luftdruck Luftfeuchtigkeit
    00:00 +13°C° 1,8 mm 3 m/S 754 mmHg 92%
    01:00 +13°C° 1,8 mm 4 m/S 753 mmHg 93%
    02:00 +13°C° 1,8 mm 4 m/S 753 mmHg 94%
    03:00 +13°C° 1,4 mm 4 m/S 753 mmHg 95%
    04:00 +13°C° 1,4 mm 4 m/S 752 mmHg 95%
    05:00 +13°C° 1,4 mm 4 m/S 752 mmHg 96%
    06:00 +13°C° 0,8 mm 4 m/S 752 mmHg 96%
    07:00 +13°C° 0,8 mm 3 m/S 751 mmHg 96%
    08:00 +14°C° 0,8 mm 3 m/S 751 mmHg 96%
    09:00 +14°C° 0,1 mm 3 m/S 752 mmHg 96%
    10:00 +14°C° 0,1 mm 3 m/S 752 mmHg 95%
    11:00 +14°C° 0,1 mm 3 m/S 752 mmHg 95%
    12:00 +16°C° 0 mm 2 m/S 752 mmHg 93%
    13:00 +16°C° 0 mm 2 m/S 753 mmHg 90%
    14:00 +17°C° 0 mm 2 m/S 753 mmHg 88%
    15:00 +17°C° 0 mm 2 m/S 753 mmHg 86%
    16:00 +17°C° 0 mm 2 m/S 754 mmHg 84%
    17:00 +18°C° 0 mm 2 m/S 754 mmHg 82%
    18:00 +17°C° 0 mm 2 m/S 754 mmHg 85%
    19:00 +16°C° 0 mm 2 m/S 755 mmHg 89%
    20:00 +15°C° 0 mm 1 m/S 755 mmHg 92%
    21:00 +14°C° 0 mm 1 m/S 756 mmHg 93%
    22:00 +14°C° 0 mm 1 m/S 756 mmHg 94%
    23:00 +13°C° 0 mm 1 m/S 756 mmHg 95%

    Morgen, 16 August, Donnerstag

    Zeit Temperatur Niederschläge Wind Luftdruck Luftfeuchtigkeit
    00:00 +13°C° 0 mm 1 m/S 757 mmHg 95%
    01:00 +13°C° 0 mm 1 m/S 757 mmHg 95%
    02:00 +12°C° 0 mm 1 m/S 757 mmHg 95%
    03:00 +12°C° 0 mm 1 m/S 758 mmHg 95%
    04:00 +12°C° 0 mm 1 m/S 758 mmHg 95%
    05:00 +12°C° 0 mm 1 m/S 758 mmHg 95%
    06:00 +13°C° 0 mm 0 m/S 759 mmHg 89%
    07:00 +15°C° 0 mm 0 m/S 759 mmHg 83%
    08:00 +17°C° 0 mm 0 m/S 759 mmHg 78%
    09:00 +19°C° 0 mm 0 m/S 760 mmHg 70%
    10:00 +20°C° 0 mm 0 m/S 760 mmHg 63%
    11:00 +22°C° 0 mm 0 m/S 760 mmHg 56%
    12:00 +25°C° 0 mm 1 m/S 760 mmHg 53%
    13:00 +25°C° 0 mm 1 m/S 760 mmHg 51%
    14:00 +25°C° 0 mm 1 m/S 760 mmHg 49%
    15:00 +25°C° 0 mm 1 m/S 760 mmHg 50%
    16:00 +24°C° 0 mm 1 m/S 760 mmHg 52%
    17:00 +24°C° 0 mm 1 m/S 760 mmHg 54%
    18:00 +22°C° 0 mm 1 m/S 761 mmHg 61%
    19:00 +20°C° 0 mm 1 m/S 761 mmHg 67%
    20:00 +18°C° 0 mm 1 m/S 761 mmHg 74%
    21:00 +18°C° 0 mm 1 m/S 761 mmHg 76%
    22:00 +16°C° 0 mm 1 m/S 762 mmHg 78%
    23:00 +15°C° 0 mm 1 m/S 762 mmHg 80%

    übermorgen, 17 August, Freitag

    Zeit Temperatur Niederschläge Wind Luftdruck Luftfeuchtigkeit
    00:00 +15°C° 0 mm 1 m/S 762 mmHg 82%
    01:00 +15°C° 0 mm 1 m/S 762 mmHg 84%
    02:00 +14°C° 0 mm 1 m/S 762 mmHg 86%
    03:00 +14°C° 0 mm 2 m/S 762 mmHg 87%
    04:00 +14°C° 0 mm 2 m/S 762 mmHg 89%
    05:00 +14°C° 0 mm 2 m/S 762 mmHg 90%
    06:00 +16°C° 0 mm 2 m/S 763 mmHg 84%
    07:00 +17°C° 0 mm 2 m/S 763 mmHg 78%
    08:00 +19°C° 0 mm 2 m/S 763 mmHg 71%
    09:00 +20°C° 0 mm 2 m/S 763 mmHg 66%
    10:00 +23°C° 0 mm 2 m/S 763 mmHg 60%
    11:00 +24°C° 0 mm 3 m/S 763 mmHg 54%
    12:00 +25°C° 0 mm 3 m/S 763 mmHg 52%
    13:00 +25°C° 0 mm 3 m/S 762 mmHg 50%
    14:00 +26°C° 0 mm 3 m/S 762 mmHg 48%
    15:00 +26°C° 0 mm 3 m/S 762 mmHg 50%
    16:00 +25°C° 0 mm 2 m/S 761 mmHg 52%
    17:00 +25°C° 0 mm 2 m/S 761 mmHg 54%
    18:00 +23°C° 0 mm 2 m/S 761 mmHg 61%
    19:00 +21°C° 0 mm 2 m/S 761 mmHg 68%
    20:00 +19°C° 0 mm 2 m/S 761 mmHg 75%
    21:00 +18°C° 0 mm 2 m/S 761 mmHg 78%
    22:00 +17°C° 0 mm 3 m/S 761 mmHg 80%
    23:00 +17°C° 0 mm 3 m/S 761 mmHg 82%

    18 August, Samstag

    Zeit Temperatur Niederschläge Wind Luftdruck Luftfeuchtigkeit
    00:00 +16°C° 0 mm 3 m/S 761 mmHg 83%
    01:00 +16°C° 0 mm 3 m/S 761 mmHg 84%
    02:00 +16°C° 0 mm 3 m/S 761 mmHg 84%
    03:00 +14°C° 0 mm 3 m/S 761 mmHg 86%
    04:00 +14°C° 0 mm 3 m/S 760 mmHg 88%
    05:00 +14°C° 0 mm 3 m/S 760 mmHg 90%
    06:00 +16°C° 0 mm 3 m/S 760 mmHg 85%
    07:00 +18°C° 0 mm 3 m/S 760 mmHg 80%
    08:00 +20°C° 0 mm 3 m/S 760 mmHg 75%
    09:00 +21°C° 0 mm 4 m/S 760 mmHg 70%
    10:00 +23°C° 0 mm 4 m/S 760 mmHg 66%
    11:00 +25°C° 0 mm 4 m/S 760 mmHg 61%
    12:00 +26°C° 0 mm 4 m/S 759 mmHg 59%
    13:00 +26°C° 0 mm 4 m/S 759 mmHg 57%
    14:00 +27°C° 0 mm 4 m/S 759 mmHg 55%
    15:00 +27°C° 0 mm 4 m/S 759 mmHg 57%
    16:00 +26°C° 0 mm 4 m/S 758 mmHg 59%
    17:00 +26°C° 0 mm 3 m/S 758 mmHg 61%
    18:00 +25°C° 0 mm 3 m/S 758 mmHg 68%
    19:00 +22°C° 0 mm 3 m/S 758 mmHg 75%
    20:00 +20°C° 0 mm 3 m/S 758 mmHg 82%
    21:00 +20°C° 0 mm 3 m/S 758 mmHg 84%
    22:00 +19°C° 0 mm 3 m/S 758 mmHg 87%
    23:00 +19°C° 0 mm 3 m/S 757 mmHg 89%

    19 August, Sonntag

    Zeit Temperatur Niederschläge Wind Luftdruck Luftfeuchtigkeit
    00:00 +18°C° 0 mm 3 m/S 757 mmHg 91%
    01:00 +18°C° 0 mm 3 m/S 757 mmHg 92%
    02:00 +17°C° 0 mm 3 m/S 757 mmHg 94%
    03:00 +17°C° 0 mm 3 m/S 757 mmHg 93%
    04:00 +16°C° 0 mm 3 m/S 757 mmHg 92%
    05:00 +16°C° 0 mm 3 m/S 757 mmHg 91%
    06:00 +15°C° 0,1 mm 4 m/S 757 mmHg 88%
    07:00 +17°C° 0,1 mm 4 m/S 757 mmHg 85%
    08:00 +16°C° 0,1 mm 5 m/S 757 mmHg 82%
    09:00 +16°C° 0,2 mm 5 m/S 757 mmHg 83%
    10:00 +17°C° 0,2 mm 5 m/S 757 mmHg 85%
    11:00 +17°C° 0,2 mm 5 m/S 757 mmHg 87%
    12:00 +17°C° 0,1 mm 5 m/S 757 mmHg 86%
    13:00 +19°C° 0,1 mm 5 m/S 757 mmHg 85%
    14:00 +19°C° 0,1 mm 5 m/S 757 mmHg 84%
    15:00 +20°C° 0,2 mm 5 m/S 757 mmHg 80%
    16:00 +20°C° 0,2 mm 5 m/S 757 mmHg 76%
    17:00 +21°C° 0,2 mm 4 m/S 756 mmHg 72%
    18:00 +19°C° 0 mm 4 m/S 757 mmHg 74%
    19:00 +18°C° 0 mm 4 m/S 757 mmHg 75%
    20:00 +17°C° 0 mm 4 m/S 757 mmHg 77%
    21:00 +15°C° 0 mm 4 m/S 757 mmHg 80%
    22:00 +14°C° 0 mm 4 m/S 757 mmHg 84%
    23:00 +14°C° 0 mm 4 m/S 758 mmHg 87%

    20 August, Montag

    Zeit Temperatur Niederschläge Wind Luftdruck Luftfeuchtigkeit
    00:00 +13°C° 0 mm 4 m/S 758 mmHg 89%
    01:00 +13°C° 0 mm 3 m/S 758 mmHg 91%
    02:00 +13°C° 0 mm 3 m/S 758 mmHg 93%
    03:00 +12°C° 0 mm 3 m/S 758 mmHg 94%
    04:00 +12°C° 0 mm 3 m/S 758 mmHg 95%
    05:00 +13°C° 0 mm 2 m/S 758 mmHg 96%
    06:00 +14°C° 0 mm 2 m/S 758 mmHg 90%
    07:00 +15°C° 0 mm 2 m/S 758 mmHg 84%
    08:00 +17°C° 0 mm 2 m/S 759 mmHg 78%
    09:00 +18°C° 0,2 mm 2 m/S 759 mmHg 72%
    10:00 +19°C° 0,2 mm 3 m/S 759 mmHg 67%
    11:00 +20°C° 0,2 mm 3 m/S 759 mmHg 61%
    12:00 +20°C° 0,1 mm 3 m/S 759 mmHg 61%
    13:00 +20°C° 0,1 mm 3 m/S 759 mmHg 60%
    14:00 +20°C° 0,1 mm 3 m/S 758 mmHg 60%
    15:00 +20°C° 0,2 mm 3 m/S 758 mmHg 63%
    16:00 +19°C° 0,2 mm 3 m/S 759 mmHg 66%
    17:00 +19°C° 0,2 mm 2 m/S 759 mmHg 69%
    18:00 +18°C° 0,1 mm 2 m/S 759 mmHg 73%
    19:00 +17°C° 0,1 mm 2 m/S 759 mmHg 77%
    20:00 +15°C° 0,1 mm 2 m/S 759 mmHg 81%
    21:00 +15°C° 0 mm 2 m/S 760 mmHg 82%
    22:00 +13°C° 0 mm 3 m/S 760 mmHg 84%
    23:00 +12°C° 0 mm 3 m/S 760 mmHg 86%
    Mehr zeigen